FW3854 Weather Reports


time (UTC)temp
C
wind
direction
speed
KPH
gust
KPH
rain 1hr
cm
rain 24hr
cm
rain mn
cm
humidity
%
barometer
mb
20260510022511 15 229 0.0 4.8 0.00 0.00 0.00 63 1007.0
20260510022053 15 205 1.6 4.8 0.00 0.00 0.00 63 1007.0
20260510021506 16 199 0.0 4.8 0.00 0.00 0.00 61 1007.0
20260510021048 17 162 1.6 4.8 0.00 0.00 0.00 59 1006.9
20260510020526 17 209 0.0 4.8 0.00 0.00 0.00 57 1006.8
20260510020043 17 209 1.6 4.8 0.00 0.00 0.00 57 1006.7
20260510015520 17 209 0.0 4.8 0.00 0.00 0.00 58 1006.7
20260510015102 17 209 1.6 4.8 0.00 0.00 0.00 56 1006.5
20260510014516 17 210 3.2 4.8 0.00 0.00 0.00 56 1006.4
20260510014058 17 218 0.0 3.2 0.00 0.00 0.00 56 1006.4
20260510013537 17 218 0.0 4.8 0.00 0.00 0.00 56 1006.3
20260510013041 17 218 3.2 6.4 0.00 0.00 0.00 56 1006.2
20260510012522 17 222 3.2 6.4 0.00 0.00 0.00 56 1006.2
20260510012105 17 226 1.6 4.8 0.00 0.00 0.00 56 1006.2
20260510011516 17 226 1.6 4.8 0.00 0.00 0.00 57 1006.0
20260510011059 17 226 1.6 4.8 0.00 0.00 0.00 58 1006.0
20260510010537 17 255 1.6 4.8 0.00 0.00 0.00 59 1005.9
20260510010054 17 233 0.0 3.2 0.00 0.00 0.00 59 1005.9
20260510005532 17 233 0.0 0.0 0.00 0.00 0.00 59 1005.9
20260510005013 17 231 0.0 0.0 0.00 0.00 0.00 59 1005.8
20260510004528 17 231 0.0 0.0 0.00 0.00 0.00 58 1005.5
20260510004004 17 231 0.0 0.0 0.00 0.00 0.00 59 1005.6
20260510003546 17 231 0.0 0.0 0.00 0.00 0.00 60 1005.5
20260510003104 17 231 0.0 0.0 0.00 0.00 0.00 61 1005.4
20260510002530 17 231 0.0 0.0 0.00 0.00 0.00 62 1005.4
20260510002009 16 231 0.0 0.0 0.00 0.00 0.00 63 1005.2
20260510001515 17 231 0.0 0.0 0.00 0.00 0.00 62 1005.2
20260510001059 17 231 0.0 0.0 0.00 0.00 0.00 63 1004.8
20260510000537 17 231 0.0 0.0 0.00 0.00 0.00 62 1004.8
20260510000046 17 231 0.0 0.0 0.00 0.00 0.00 62 1004.8
20260509235521 17 232 0.0 0.0 0.00 0.00 0.00 63 1004.8
20260509235103 17 249 0.0 0.0 0.00 0.00 0.00 63 1004.7
20260509234505 17 249 0.0 0.0 0.00 0.00 0.00 62 1004.8
20260509234046 17 253 0.0 0.0 0.00 0.00 0.00 62 1004.7
20260509233524 17 253 0.0 0.0 0.00 0.00 0.00 63 1004.7
20260509233033 17 253 0.0 0.0 0.00 0.00 0.00 65 1004.8
20260509232509 18 255 0.0 0.0 0.00 0.00 0.00 64 1004.7
20260509232053 18 284 0.0 0.0 0.00 0.00 0.00 64 1004.7
20260509231616 18 284 0.0 0.0 0.00 0.00 0.00 65 1004.8
20260509231036 18 280 0.0 0.0 0.00 0.00 0.00 66 1004.8
20260509230510 18 150 0.0 0.0 0.00 0.00 0.00 64 1004.8
20260509230027 18 150 0.0 0.0 0.00 0.00 0.00 62 1004.7
20260509225506 18 150 0.0 0.0 0.00 0.00 0.00 61 1004.7
20260509225048 18 150 0.0 0.0 0.00 0.00 0.00 61 1004.8
20260509224554 18 150 0.0 0.0 0.00 0.00 0.00 60 1004.8
20260509224031 18 150 0.0 0.0 0.00 0.00 0.00 59 1004.8
20260509223510 18 150 0.0 0.0 0.00 0.00 0.00 61 1005.0
20260509223024 18 150 0.0 0.0 0.00 0.00 0.00 62 1005.1
20260509222501 18 150 0.0 0.0 0.00 0.00 0.00 61 1005.2
20260509222044 19 149 0.0 0.0 0.00 0.00 0.00 60 1005.1
20260509221626 19 149 0.0 0.0 0.00 0.00 0.00 59 1005.1
20260509221039 19 149 0.0 0.0 0.00 0.00 0.00 59 1005.2
20260509220518 19 149 0.0 0.0 0.00 0.00 0.00 58 1005.2
20260509220041 19 149 0.0 0.0 0.00 0.00 0.00 57 1005.1
20260509215517 20 149 0.0 0.0 0.00 0.00 0.00 57 1005.1
20260509215058 20 151 0.0 0.0 0.00 0.00 0.00 58 1005.1
20260509214507 20 159 0.0 0.0 0.00 0.00 0.00 58 1005.0
20260509214049 20 159 0.0 0.0 0.00 0.00 0.00 58 1005.0
20260509213528 20 37 0.0 0.0 0.00 0.00 0.00 58 1004.9
20260509213046 20 37 0.0 4.8 0.00 0.00 0.00 57 1004.8
20260509212524 20 37 0.0 4.8 0.00 0.00 0.00 57 1004.7
20260509212004 20 37 1.6 4.8 0.00 0.00 0.00 56 1004.7
20260509211520 20 36 1.6 6.4 0.00 0.00 0.00 55 1004.9
20260509211101 20 36 3.2 6.4 0.00 0.00 0.00 54 1004.8
20260509210540 21 43 3.2 6.4 0.00 0.00 0.00 54 1004.6
20260509210059 21 43 1.6 6.4 0.00 0.00 0.00 54 1004.5
20260509205534 21 31 3.2 4.8 0.00 0.00 0.00 53 1004.4
20260509205012 21 36 0.0 3.2 0.00 0.00 0.00 53 1004.4
20260509204529 21 36 0.0 0.0 0.00 0.00 0.00 53 1004.4
20260509204007 21 36 0.0 4.8 0.00 0.00 0.00 53 1004.4
20260509203552 21 36 0.0 4.8 0.00 0.00 0.00 53 1004.5
20260509203055 21 37 0.0 4.8 0.00 0.00 0.00 52 1004.4
20260509202536 21 37 1.6 4.8 0.00 0.00 0.00 52 1004.4
20260509202011 20 36 1.6 4.8 0.00 0.00 0.00 55 1004.4
20260509201527 20 343 0.0 3.2 0.00 0.00 0.00 53 1004.3
20260509201004 20 341 0.0 0.0 0.00 0.00 0.00 53 1004.4
20260509200548 20 341 0.0 0.0 0.00 0.00 0.00 52 1004.4
20260509200108 20 341 0.0 0.0 0.00 0.00 0.00 52 1004.4
20260509195533 20 341 0.0 0.0 0.00 0.00 0.00 52 1004.4
20260509195011 20 341 0.0 0.0 0.00 0.00 0.00 51 1004.4
20260509194516 20 341 0.0 0.0 0.00 0.00 0.00 51 1004.4
20260509194058 20 341 0.0 0.0 0.00 0.00 0.00 51 1004.4
20260509193537 20 341 0.0 1.6 0.00 0.00 0.00 51 1004.4
20260509193042 20 341 0.0 3.2 0.00 0.00 0.00 51 1004.5
20260509192519 20 341 0.0 3.2 0.00 0.00 0.00 51 1004.5
20260509192102 20 341 0.0 3.2 0.00 0.00 0.00 52 1004.5
20260509191605 20 321 0.0 1.6 0.00 0.00 0.00 53 1004.7
20260509191042 20 321 0.0 3.2 0.00 0.00 0.00 52 1004.7
20260509190520 20 323 0.0 6.4 0.00 0.00 0.00 53 1004.8
20260509190026 20 49 0.0 4.8 0.00 0.00 0.00 53 1004.8
20260509185502 19 34 0.0 6.4 0.00 0.00 0.00 53 1004.9
20260509185045 19 298 0.0 6.4 0.00 0.00 0.00 55 1005.0
20260509184551 18 154 0.0 0.0 0.00 0.00 0.00 54 1005.1
20260509184029 18 61 0.0 0.0 0.00 0.00 0.00 55 1005.2
20260509183507 18 61 0.0 0.0 0.00 0.00 0.00 56 1005.4
20260509183024 18 122 0.0 0.0 0.00 0.00 0.00 52 1005.2
20260509182502 18 20 0.0 0.0 0.00 0.00 0.00 53 1005.4
20260509182044 18 268 0.0 0.0 0.00 0.00 0.00 55 1005.5
20260509181551 18 268 0.0 0.0 0.00 0.00 0.00 54 1005.5
20260509181027 18 268 0.0 0.0 0.00 0.00 0.00 55 1005.7
20260509180508 17 268 0.0 0.0 0.00 0.00 0.00 56 1005.7
20260509180021 17 268 0.0 0.0 0.00 0.00 0.00 56 1005.8
20260509175604 17 268 0.0 0.0 0.00 0.00 0.00 56 1005.7
20260509175042 17 268 0.0 0.0 0.00 0.00 0.00 56 1005.7
20260509174551 17 268 0.0 0.0 0.00 0.00 0.00 56 1005.8
20260509174027 17 268 0.0 0.0 0.00 0.00 0.00 56 1005.9
20260509173504 17 268 0.0 0.0 0.00 0.00 0.00 57 1006.1
20260509173020 16 137 0.0 0.0 0.00 0.00 0.00 57 1006.2
20260509172602 16 137 0.0 0.0 0.00 0.00 0.00 58 1006.2
20260509172041 16 143 0.0 0.0 0.00 0.00 0.00 58 1006.3
20260509171547 16 143 0.0 0.0 0.00 0.00 0.00 58 1006.3
20260509171026 16 143 0.0 0.0 0.00 0.00 0.00 58 1006.4
20260509170503 16 41 0.0 0.0 0.00 0.00 0.00 60 1006.4
20260509170009 16 52 0.0 0.0 0.00 0.00 0.00 61 1006.5
20260509165551 16 52 0.0 0.0 0.00 0.00 0.00 60 1006.4
20260509165028 16 50 0.0 0.0 0.00 0.00 0.00 59 1006.5
20260509164534 16 50 0.0 0.0 0.00 0.00 0.00 61 1006.6
20260509164011 16 50 0.0 0.0 0.00 0.00 0.00 61 1006.5
20260509163553 16 50 0.0 0.0 0.00 0.00 0.00 60 1006.7
20260509163103 16 50 0.0 0.0 0.00 0.00 0.00 62 1006.7
20260509162536 16 50 0.0 0.0 0.00 0.00 0.00 61 1006.9
20260509162015 16 50 0.0 0.0 0.00 0.00 0.00 61 1006.9
20260509161527 16 50 0.0 0.0 0.00 0.00 0.00 61 1006.9
20260509161103 16 50 0.0 0.0 0.00 0.00 0.00 61 1006.9
20260509160538 16 50 0.0 0.0 0.00 0.00 0.00 60 1007.0
20260509160045 16 50 0.0 0.0 0.00 0.00 0.00 59 1007.0
20260509155523 16 50 0.0 0.0 0.00 0.00 0.00 60 1007.0
20260509155002 16 50 0.0 0.0 0.00 0.00 0.00 59 1007.0
20260509154508 16 50 0.0 0.0 0.00 0.00 0.00 59 1007.0
20260509154050 16 50 0.0 0.0 0.00 0.00 0.00 58 1006.9
20260509153528 16 50 0.0 0.0 0.00 0.00 0.00 59 1006.9
20260509153046 16 50 0.0 0.0 0.00 0.00 0.00 57 1006.8
20260509152512 16 54 0.0 0.0 0.00 0.00 0.00 61 1006.8
20260509152056 16 54 0.0 0.0 0.00 0.00 0.00 60 1006.7
20260509151601 16 54 0.0 0.0 0.00 0.00 0.00 60 1006.8
20260509151042 16 54 0.0 0.0 0.00 0.00 0.00 60 1006.8
20260509150518 16 54 0.0 0.0 0.00 0.00 0.00 59 1006.8
20260509150040 16 54 0.0 0.0 0.00 0.00 0.00 60 1006.8
20260509145515 16 54 0.0 0.0 0.00 0.00 0.00 59 1006.9
20260509145054 16 54 0.0 0.0 0.00 0.00 0.00 59 1006.9
20260509144558 16 54 0.0 0.0 0.00 0.00 0.00 59 1006.9
20260509144037 16 54 0.0 0.0 0.00 0.00 0.00 59 1007.0
20260509143515 16 73 0.0 0.0 0.00 0.00 0.00 59 1006.8
20260509143036 16 73 0.0 0.0 0.00 0.00 0.00 59 1006.9
20260509142510 15 73 0.0 0.0 0.00 0.00 0.00 59 1006.9
20260509142053 15 73 0.0 0.0 0.00 0.00 0.00 62 1006.8
20260509141601 15 73 0.0 0.0 0.00 0.00 0.00 62 1006.9
20260509141037 15 73 0.0 0.0 0.00 0.00 0.00 61 1006.9
20260509140515 15 73 0.0 0.0 0.00 0.00 0.00 61 1007.0
20260509140035 15 91 0.0 0.0 0.00 0.00 0.00 64 1007.1
20260509135510 14 91 0.0 0.0 0.00 0.00 0.00 62 1007.1
20260509135052 14 91 0.0 0.0 0.00 0.00 0.00 62 1007.2
20260509134558 14 91 0.0 1.6 0.00 0.00 0.00 62 1007.3
20260509134037 14 93 0.0 0.0 0.00 0.00 0.00 62 1007.4
20260509133515 13 94 0.0 0.0 0.00 0.00 0.00 64 1007.5
20260509133033 13 94 0.0 0.0 0.00 0.00 0.00 63 1007.5
20260509132511 13 94 0.0 0.0 0.00 0.00 0.00 65 1007.4
20260509132053 13 94 0.0 0.0 0.00 0.00 0.00 66 1007.3
20260509131559 13 94 0.0 0.0 0.00 0.00 0.00 67 1007.2
20260509131037 13 94 0.0 0.0 0.00 0.00 0.00 68 1007.2
20260509130515 13 94 0.0 0.0 0.00 0.00 0.00 68 1007.1
20260509130033 13 94 0.0 0.0 0.00 0.00 0.00 68 1007.1
20260509125518 13 94 0.0 0.0 0.00 0.00 0.00 68 1007.1
20260509125053 12 94 0.0 0.0 0.00 0.00 0.00 69 1007.1
20260509124557 12 94 0.0 0.0 0.00 0.00 0.00 69 1006.9
20260509124035 12 94 0.0 0.0 0.00 0.00 0.00 70 1007.0
20260509123514 12 94 0.0 0.0 0.00 0.00 0.00 70 1007.1
20260509123029 12 94 0.0 0.0 0.00 0.00 0.00 73 1007.0
20260509122510 12 94 0.0 0.0 0.00 0.00 0.00 72 1007.1
20260509122053 12 94 0.0 0.0 0.00 0.00 0.00 68 1007.2
20260509121601 12 94 0.0 0.0 0.00 0.00 0.00 70 1007.3
20260509121040 12 94 0.0 0.0 0.00 0.00 0.00 69 1007.4
20260509120519 12 94 0.0 0.0 0.00 0.00 0.00 70 1007.4
20260509120036 12 94 0.0 0.0 0.00 0.00 0.00 70 1007.3
20260509115509 12 94 0.0 0.0 0.00 0.00 0.00 68 1007.2
20260509115052 12 94 0.0 0.0 0.00 0.00 0.00 69 1007.2
20260509114558 12 93 0.0 0.0 0.00 0.00 0.00 68 1007.3
20260509114036 12 93 0.0 0.0 0.00 0.00 0.00 67 1007.3
20260509113515 12 93 0.0 0.0 0.00 0.00 0.00 68 1007.2
20260509113021 12 93 0.0 0.0 0.00 0.00 0.00 68 1007.2
20260509112502 12 93 0.0 0.0 0.00 0.00 0.00 65 1007.2
20260509112043 12 93 0.0 0.0 0.00 0.00 0.00 66 1007.2
20260509111551 12 93 0.0 0.0 0.00 0.00 0.00 67 1007.2
20260509111027 12 93 0.0 0.0 0.00 0.00 0.00 65 1007.1
20260509110504 12 93 0.0 0.0 0.00 0.00 0.00 64 1007.0
20260509110009 12 93 0.0 0.0 0.00 0.00 0.00 64 1006.9
20260509105551 12 93 0.0 0.0 0.00 0.00 0.00 63 1006.8
20260509105029 12 93 0.0 0.0 0.00 0.00 0.00 63 1006.7
20260509104534 13 93 0.0 0.0 0.00 0.00 0.00 63 1006.8
20260509104012 13 93 0.0 0.0 0.00 0.00 0.00 61 1006.8
20260509103554 13 93 0.0 0.0 0.00 0.00 0.00 62 1006.8
20260509103104 13 93 0.0 0.0 0.00 0.00 0.00 60 1006.8
20260509102536 13 93 0.0 0.0 0.00 0.00 0.00 59 1006.9
20260509102015 13 93 0.0 0.0 0.00 0.00 0.00 59 1006.8
20260509101533 13 93 0.0 0.0 0.00 0.00 0.00 59 1006.8
20260509101012 13 93 0.0 1.6 0.00 0.00 0.00 59 1006.7
20260509100551 13 93 0.0 0.0 0.00 0.00 0.00 60 1006.7
20260509100100 13 93 0.0 0.0 0.00 0.00 0.00 58 1006.7
20260509095534 13 93 0.0 0.0 0.00 0.00 0.00 58 1006.7
20260509095013 13 93 0.0 0.0 0.00 0.00 0.00 58 1006.7
20260509094527 13 93 0.0 3.2 0.00 0.00 0.00 58 1006.7
20260509094005 13 93 1.6 3.2 0.00 0.00 0.00 57 1006.8
20260509093548 13 93 0.0 1.6 0.00 0.00 0.00 56 1006.7
20260509093053 14 93 0.0 1.6 0.00 0.00 0.00 55 1006.8
20260509092530 14 93 0.0 3.2 0.00 0.00 0.00 54 1006.8
20260509092012 14 93 0.0 1.6 0.00 0.00 0.00 54 1007.0
20260509091527 14 93 0.0 1.6 0.00 0.00 0.00 53 1006.8
20260509091005 14 93 0.0 1.6 0.00 0.00 0.00 53 1006.8
20260509090548 14 77 0.0 4.8 0.00 0.00 0.00 53 1006.9
20260509090056 14 63 0.0 4.8 0.00 0.00 0.00 53 1006.8
20260509085531 14 245 0.0 4.8 0.00 0.00 0.00 53 1006.9
20260509085011 14 199 0.0 3.2 0.00 0.00 0.00 54 1007.0
20260509084531 14 199 0.0 4.8 0.00 0.00 0.00 54 1006.9
20260509084004 13 199 0.0 4.8 0.00 0.00 0.00 55 1007.0
20260509083552 13 171 0.0 1.6 0.00 0.00 0.00 55 1007.2
20260509083059 13 207 0.0 3.2 0.00 0.00 0.00 55 1007.2
20260509082532 13 207 0.0 3.2 0.00 0.00 0.00 55 1007.1
20260509082012 13 207 0.0 3.2 0.00 0.00 0.00 55 1007.1
20260509081530 14 207 0.0 3.2 0.00 0.00 0.00 55 1007.0
20260509081011 14 207 0.0 3.2 0.00 0.00 0.00 54 1007.1
20260509080553 14 207 0.0 1.6 0.00 0.00 0.00 54 1007.1
20260509080059 14 207 0.0 4.8 0.00 0.00 0.00 54 1007.1
20260509075533 14 207 1.6 4.8 0.00 0.00 0.00 54 1007.2
20260509075012 14 207 1.6 4.8 0.00 0.00 0.00 54 1007.2
20260509074518 14 207 1.6 4.8 0.00 0.00 0.00 54 1007.3
20260509074057 14 207 0.0 4.8 0.00 0.00 0.00 54 1007.2
20260509073535 14 207 0.0 4.8 0.00 0.00 0.00 54 1007.3
20260509073042 14 207 0.0 3.2 0.00 0.00 0.00 54 1007.3
20260509072519 14 207 0.0 6.4 0.00 0.00 0.00 54 1007.4
20260509072101 14 207 0.0 6.4 0.00 0.00 0.00 54 1007.4
20260509071504 14 207 1.6 6.4 0.00 0.00 0.00 54 1007.4
20260509071045 14 207 1.6 6.4 0.00 0.00 0.00 54 1007.4
20260509070524 14 202 1.6 4.8 0.00 0.00 0.00 54 1007.4
20260509070028 14 201 0.0 4.8 0.00 0.00 0.00 54 1007.4
20260509065507 14 201 1.6 4.8 0.00 0.00 0.00 54 1007.3
20260509065048 14 201 0.0 4.8 0.00 0.00 0.00 54 1007.4
20260509064558 14 201 0.0 4.8 0.00 0.00 0.00 54 1007.4
20260509064037 14 201 0.0 4.8 0.00 0.00 0.00 54 1007.4
20260509063516 14 210 0.0 4.8 0.00 0.00 0.00 54 1007.5
20260509063030 14 207 1.6 6.4 0.00 0.00 0.00 54 1007.6
20260509062506 14 207 1.6 6.4 0.00 0.00 0.00 54 1007.6
20260509062048 14 201 1.6 4.8 0.00 0.00 0.00 54 1007.6
20260509061601 14 200 0.0 4.8 0.00 0.00 0.00 53 1007.6
20260509061033 14 200 0.0 4.8 0.00 0.00 0.00 53 1007.6
20260509060512 14 200 0.0 4.8 0.00 0.00 0.00 54 1007.6
20260509060036 14 200 0.0 3.2 0.00 0.00 0.00 53 1007.8
20260509055508 14 200 0.0 3.2 0.00 0.00 0.00 53 1007.7
20260509055049 14 200 0.0 3.2 0.00 0.00 0.00 53 1007.9
20260509054502 15 200 0.0 3.2 0.00 0.00 0.00 53 1007.9
20260509054045 15 200 0.0 3.2 0.00 0.00 0.00 52 1007.9
20260509053524 15 200 0.0 1.6 0.00 0.00 0.00 52 1007.9
20260509053044 15 200 0.0 3.2 0.00 0.00 0.00 51 1007.9
20260509052520 15 200 0.0 3.2 0.00 0.00 0.00 51 1008.0
20260509052103 15 199 0.0 4.8 0.00 0.00 0.00 50 1007.9
20260509051516 15 199 1.6 6.4 0.00 0.00 0.00 50 1008.0
20260509051059 15 211 1.6 6.4 0.00 0.00 0.00 50 1008.1
20260509050538 15 210 1.6 6.4 0.00 0.00 0.00 50 1008.0
20260509050055 16 196 0.0 6.4 0.00 0.00 0.00 50 1008.0
20260509045533 16 201 1.6 9.7 0.00 0.00 0.00 49 1008.0
20260509045009 16 196 3.2 9.7 0.00 0.00 0.00 49 1008.0
20260509044527 16 159 4.8 9.7 0.00 0.00 0.00 50 1007.9
20260509044005 15 219 4.8 9.7 0.00 0.00 0.00 50 1008.0
20260509043546 15 216 3.2 9.7 0.00 0.00 0.00 52 1008.1
20260509043103 15 204 1.6 4.8 0.00 0.00 0.00 52 1008.0
20260509042542 15 197 0.0 4.8 0.00 0.00 0.00 52 1008.0
20260509042024 14 207 1.6 4.8 0.00 0.00 0.00 53 1008.0
20260509041538 14 209 1.6 4.8 0.00 0.00 0.00 54 1008.0
20260509041015 13 235 1.6 3.2 0.00 0.00 0.00 56 1008.0
20260509040558 13 249 0.0 1.6 0.00 0.00 0.00 59 1008.1
20260509040011 13 249 0.0 0.0 0.00 0.00 0.00 60 1008.0
20260509035553 13 249 0.0 0.0 0.00 0.00 0.00 60 1008.0
20260509035033 13 249 0.0 3.2 0.00 0.00 0.00 62 1008.1
20260509034552 13 249 1.6 3.2 0.00 0.00 0.00 63 1008.1
20260509034031 13 274 0.0 0.0 0.00 0.00 0.00 59 1008.0
20260509033507 13 274 0.0 0.0 0.00 0.00 0.00 59 1008.0
20260509033025 13 274 0.0 0.0 0.00 0.00 0.00 60 1008.1
20260509032508 13 274 0.0 1.6 0.00 0.00 0.00 61 1008.0
20260509032046 13 274 0.0 3.2 0.00 0.00 0.00 60 1008.2
20260509031624 13 293 0.0 3.2 0.00 0.00 0.00 64 1008.2
20260509031042 13 293 0.0 0.0 0.00 0.00 0.00 62 1008.2
20260509030523 14 293 0.0 0.0 0.00 0.00 0.00 61 1008.2
20260509030040 14 293 0.0 0.0 0.00 0.00 0.00 57 1008.0
20260509025516 14 293 0.0 0.0 0.00 0.00 0.00 57 1008.1
20260509025059 14 293 0.0 0.0 0.00 0.00 0.00 57 1008.0
20260509024520 14 293 0.0 0.0 0.00 0.00 0.00 57 1008.1
20260509024055 14 293 0.0 0.0 0.00 0.00 0.00 55 1008.1
20260509023535 14 293 0.0 1.6 0.00 0.00 0.00 55 1008.1
20260509023054 14 293 0.0 1.6 0.00 0.00 0.00 55 1008.3